Time,TemperatureF,DewpointF,PressureIn,WindDirection,WindDirectionDegrees,WindSpeedMPH,WindSpeedGustMPH,Humidity,HourlyPrecipIn,Conditions,Clouds,dailyrainin,SoftwareType,DateUTC
2013-02-07 00:00:00,25.0,20.3,29.59,NNW,348,0.0,0.0,82,0.00,CLR,,0.00,WeatherDisplay:10.37,2013-02-07 09:00:00,
2013-02-07 00:05:00,24.8,20.4,29.58,NNW,348,0.0,0.0,83,0.00,CLR,,0.00,WeatherDisplay:10.37,2013-02-07 09:05:00,
2013-02-07 00:10:00,24.5,20.1,29.58,NNW,348,0.0,0.0,83,0.00,CLR,,0.00,WeatherDisplay:10.37,2013-02-07 09:10:00,
2013-02-07 00:15:00,24.4,20.0,29.58,NNW,348,0.0,0.0,83,0.00,CLR,,0.00,WeatherDisplay:10.37,2013-02-07 09:15:00,
2013-02-07 00:20:00,24.2,19.8,29.59,NNW,348,0.0,0.0,83,0.00,CLR,,0.00,WeatherDisplay:10.37,2013-02-07 09:20:00,
2013-02-07 00:25:00,24.0,19.9,29.59,NNW,348,0.0,0.0,84,0.00,CLR,,0.00,WeatherDisplay:10.37,2013-02-07 09:25:00,
2013-02-07 00:30:00,23.9,20.0,29.59,NNW,348,0.0,0.0,85,0.00,CLR,,0.00,WeatherDisplay:10.37,2013-02-07 09:30:00,
2013-02-07 00:35:00,23.9,20.0,29.58,NNW,348,0.0,0.0,85,0.00,CLR,,0.00,WeatherDisplay:10.37,2013-02-07 09:35:00,
2013-02-07 00:40:00,24.0,20.1,29.58,NNW,348,0.0,0.0,85,0.00,CLR,,0.00,WeatherDisplay:10.37,2013-02-07 09:40:00,
2013-02-07 00:45:00,24.3,20.4,29.58,NNW,348,0.0,0.0,85,0.00,CLR,,0.00,WeatherDisplay:10.37,2013-02-07 09:45:00,
2013-02-07 00:50:00,24.8,20.7,29.58,NNW,348,0.0,0.0,84,0.00,CLR,,0.00,WeatherDisplay:10.37,2013-02-07 09:50:00,
2013-02-07 00:55:00,25.1,20.7,29.58,NNW,348,0.0,0.0,83,0.00,CLR,,0.00,WeatherDisplay:10.37,2013-02-07 09:55:00,
2013-02-07 01:00:00,25.4,20.7,29.58,NNW,348,0.0,0.0,82,0.00,CLR,,0.00,WeatherDisplay:10.37,2013-02-07 10:00:00,
2013-02-07 01:05:00,25.2,20.5,29.58,NNW,348,0.0,0.0,82,0.00,CLR,,0.00,WeatherDisplay:10.37,2013-02-07 10:05:00,
2013-02-07 01:10:00,25.1,20.7,29.58,NNW,348,0.0,0.0,83,0.00,CLR,,0.00,WeatherDisplay:10.37,2013-02-07 10:10:00,
2013-02-07 01:15:00,24.9,20.5,29.58,NNW,348,0.0,0.0,83,0.00,CLR,,0.00,WeatherDisplay:10.37,2013-02-07 10:15:00,
2013-02-07 01:20:00,24.7,20.6,29.58,NNW,348,0.0,0.0,84,0.00,CLR,,0.00,WeatherDisplay:10.37,2013-02-07 10:20:00,
2013-02-07 01:25:00,24.9,20.8,29.58,NNW,348,0.0,0.0,84,0.00,CLR,,0.00,WeatherDisplay:10.37,2013-02-07 10:25:00,
2013-02-07 01:30:00,24.9,20.8,29.58,NNW,348,0.0,0.0,84,0.00,CLR,,0.00,WeatherDisplay:10.37,2013-02-07 10:30:00,
2013-02-07 01:35:00,25.0,20.8,29.58,NNW,348,0.0,0.0,84,0.00,CLR,,0.00,WeatherDisplay:10.37,2013-02-07 10:35:00,
2013-02-07 01:40:00,24.8,20.7,29.58,NNW,348,0.0,0.0,84,0.00,CLR,,0.00,WeatherDisplay:10.37,2013-02-07 10:40:00,
2013-02-07 01:45:00,24.7,20.6,29.58,NNW,348,0.0,0.0,84,0.00,CLR,,0.00,WeatherDisplay:10.37,2013-02-07 10:45:00,
2013-02-07 01:50:00,24.5,20.4,29.58,NNW,348,0.0,0.0,84,0.00,CLR,,0.00,WeatherDisplay:10.37,2013-02-07 10:50:00,
2013-02-07 01:55:00,24.5,20.6,29.58,NNW,348,0.0,0.0,85,0.00,CLR,,0.00,WeatherDisplay:10.37,2013-02-07 10:55:00,
2013-02-07 02:00:00,24.5,20.6,29.57,NNW,348,0.0,0.0,85,0.00,CLR,,0.00,WeatherDisplay:10.37,2013-02-07 11:00:00,
2013-02-07 02:05:00,24.4,20.5,29.58,NNW,348,0.0,0.0,85,0.00,CLR,,0.00,WeatherDisplay:10.37,2013-02-07 11:05:00,
2013-02-07 02:10:00,24.5,20.9,29.57,NNW,348,0.0,0.0,86,0.00,CLR,,0.00,WeatherDisplay:10.37,2013-02-07 11:10:00,
2013-02-07 02:15:00,24.6,21.3,29.57,NNW,348,0.0,0.0,87,0.00,CLR,,0.00,WeatherDisplay:10.37,2013-02-07 11:15:00,
2013-02-07 02:20:00,24.8,21.5,29.57,NNW,348,0.0,0.0,87,0.00,CLR,,0.00,WeatherDisplay:10.37,2013-02-07 11:20:00,
2013-02-07 02:25:00,24.9,21.6,29.57,NNW,348,0.0,0.0,87,0.00,CLR,,0.00,WeatherDisplay:10.37,2013-02-07 11:25:00,
2013-02-07 02:30:00,25.0,21.4,29.57,NNW,348,0.0,0.0,86,0.00,CLR,,0.00,WeatherDisplay:10.37,2013-02-07 11:30:00,
2013-02-07 02:35:00,25.1,21.5,29.57,NNW,348,0.0,0.0,86,0.00,CLR,,0.00,WeatherDisplay:10.37,2013-02-07 11:35:00,
2013-02-07 02:40:00,25.1,21.5,29.57,NNW,348,0.0,0.0,86,0.00,CLR,,0.00,WeatherDisplay:10.37,2013-02-07 11:40:00,
2013-02-07 02:45:00,25.2,21.6,29.57,NNW,348,0.0,0.0,86,0.00,CLR,,0.00,WeatherDisplay:10.37,2013-02-07 11:45:00,
2013-02-07 02:50:00,25.2,21.6,29.56,NNW,348,0.0,0.0,86,0.00,CLR,,0.00,WeatherDisplay:10.37,2013-02-07 11:50:00,
2013-02-07 02:55:00,25.1,21.5,29.56,NNW,348,0.0,0.0,86,0.00,CLR,,0.00,WeatherDisplay:10.37,2013-02-07 11:55:00,
2013-02-07 03:00:00,25.1,21.5,29.56,NNW,348,0.0,0.0,86,0.00,CLR,,0.00,WeatherDisplay:10.37,2013-02-07 12:00:00,
2013-02-07 03:05:00,25.1,21.5,29.56,NNW,348,0.0,0.0,86,0.00,CLR,,0.00,WeatherDisplay:10.37,2013-02-07 12:05:00,
2013-02-07 03:10:00,25.1,21.5,29.55,NNW,348,0.0,0.0,86,0.00,CLR,,0.00,WeatherDisplay:10.37,2013-02-07 12:10:00,
2013-02-07 03:15:00,25.2,21.6,29.55,NNW,348,0.0,0.0,86,0.00,CLR,,0.00,WeatherDisplay:10.37,2013-02-07 12:15:00,
2013-02-07 03:20:00,25.4,21.8,29.56,NNW,348,0.0,0.0,86,0.00,CLR,,0.00,WeatherDisplay:10.37,2013-02-07 12:20:00,
2013-02-07 03:25:00,25.6,21.7,29.55,NNW,348,0.0,0.0,85,0.00,CLR,,0.00,WeatherDisplay:10.37,2013-02-07 12:25:00,
2013-02-07 03:30:00,25.8,21.9,29.55,NNW,348,0.0,0.0,85,0.00,CLR,,0.00,WeatherDisplay:10.37,2013-02-07 12:30:00,
2013-02-07 03:35:00,25.8,21.6,29.55,NNW,348,0.0,0.0,84,0.00,CLR,,0.00,WeatherDisplay:10.37,2013-02-07 12:35:00,
2013-02-07 03:40:00,25.7,21.8,29.55,NNW,348,0.0,0.0,85,0.00,CLR,,0.00,WeatherDisplay:10.37,2013-02-07 12:40:00,
2013-02-07 03:45:00,25.6,21.7,29.55,NNW,348,0.0,0.0,85,0.00,CLR,,0.00,WeatherDisplay:10.37,2013-02-07 12:45:00,
2013-02-07 03:50:00,25.4,21.5,29.55,NNW,348,0.0,0.0,85,0.00,CLR,,0.00,WeatherDisplay:10.37,2013-02-07 12:50:00,
2013-02-07 03:55:00,25.3,21.7,29.55,NNW,348,0.0,0.0,86,0.00,CLR,,0.00,WeatherDisplay:10.37,2013-02-07 12:55:00,
2013-02-07 04:00:00,25.2,21.6,29.55,NNW,348,0.0,0.0,86,0.00,CLR,,0.00,WeatherDisplay:10.37,2013-02-07 13:00:00,
2013-02-07 04:05:00,25.2,21.6,29.55,NNW,348,0.0,0.0,86,0.00,CLR,,0.00,WeatherDisplay:10.37,2013-02-07 13:05:00,
2013-02-07 04:10:00,25.2,21.6,29.55,NNW,348,0.0,0.0,86,0.00,CLR,,0.00,WeatherDisplay:10.37,2013-02-07 13:10:00,
2013-02-07 04:15:00,25.2,21.6,29.55,NNW,348,0.0,0.0,86,0.00,CLR,,0.00,WeatherDisplay:10.37,2013-02-07 13:15:00,
2013-02-07 04:20:00,25.2,21.9,29.55,NNW,348,0.0,0.0,87,0.00,CLR,,0.00,WeatherDisplay:10.37,2013-02-07 13:20:00,
2013-02-07 04:25:00,25.2,21.9,29.54,NNW,348,0.0,0.0,87,0.00,CLR,,0.00,WeatherDisplay:10.37,2013-02-07 13:25:00,
2013-02-07 04:30:00,25.2,21.9,29.54,NNW,348,0.0,0.0,87,0.00,CLR,,0.00,WeatherDisplay:10.37,2013-02-07 13:30:00,
2013-02-07 04:35:00,25.2,21.9,29.53,NNW,348,0.0,0.0,87,0.00,CLR,,0.00,WeatherDisplay:10.37,2013-02-07 13:35:00,
2013-02-07 04:40:00,25.2,21.9,29.53,NNW,348,0.0,0.0,87,0.00,CLR,,0.00,WeatherDisplay:10.37,2013-02-07 13:40:00,
2013-02-07 04:45:00,25.2,21.9,29.53,NNW,348,0.0,0.0,87,0.00,CLR,,0.00,WeatherDisplay:10.37,2013-02-07 13:45:00,
2013-02-07 04:50:00,25.3,22.0,29.53,NNW,348,0.0,0.0,87,0.00,CLR,,0.00,WeatherDisplay:10.37,2013-02-07 13:50:00,
2013-02-07 04:55:00,25.3,22.0,29.53,NNW,348,0.0,0.0,87,0.00,CLR,,0.00,WeatherDisplay:10.37,2013-02-07 13:55:00,
2013-02-07 05:00:00,25.4,21.8,29.53,NNW,348,0.0,0.0,86,0.00,CLR,,0.00,WeatherDisplay:10.37,2013-02-07 14:00:00,
2013-02-07 05:05:00,25.4,21.8,29.54,NNW,348,0.0,0.0,86,0.00,CLR,,0.00,WeatherDisplay:10.37,2013-02-07 14:05:00,
2013-02-07 05:10:00,25.5,22.2,29.53,NNW,348,0.0,0.0,87,0.00,CLR,,0.00,WeatherDisplay:10.37,2013-02-07 14:10:00,
2013-02-07 05:15:00,25.6,22.3,29.53,NNW,348,0.0,0.0,87,0.00,CLR,,0.00,WeatherDisplay:10.37,2013-02-07 14:15:00,
2013-02-07 05:20:00,25.6,22.3,29.53,NNW,348,0.0,0.0,87,0.00,CLR,,0.00,WeatherDisplay:10.37,2013-02-07 14:20:00,
2013-02-07 05:25:00,25.6,22.3,29.53,NNW,348,0.0,0.0,87,0.00,CLR,,0.00,WeatherDisplay:10.37,2013-02-07 14:25:00,
2013-02-07 05:30:00,25.5,22.2,29.52,NNW,348,0.0,0.0,87,0.00,CLR,,0.00,WeatherDisplay:10.37,2013-02-07 14:30:00,
2013-02-07 05:35:00,25.6,22.3,29.52,NNW,348,0.0,0.0,87,0.00,CLR,,0.00,WeatherDisplay:10.37,2013-02-07 14:35:00,
2013-02-07 05:40:00,25.7,22.4,29.52,NNW,348,0.0,0.0,87,0.00,CLR,,0.00,WeatherDisplay:10.37,2013-02-07 14:40:00,
2013-02-07 05:45:00,25.8,22.5,29.52,NNW,348,0.0,0.0,87,0.00,CLR,,0.00,WeatherDisplay:10.37,2013-02-07 14:45:00,
2013-02-07 05:50:00,25.9,22.6,29.52,NNW,348,0.0,0.0,87,0.00,CLR,,0.00,WeatherDisplay:10.37,2013-02-07 14:50:00,
2013-02-07 05:55:00,26.1,22.8,29.52,NNW,348,0.0,0.0,87,0.00,CLR,,0.00,WeatherDisplay:10.37,2013-02-07 14:55:00,
2013-02-07 06:00:00,26.2,23.1,29.51,NNW,348,0.0,0.0,88,0.00,CLR,,0.00,WeatherDisplay:10.37,2013-02-07 15:00:00,
2013-02-07 06:05:00,26.5,23.2,29.51,NNW,348,0.0,0.0,87,0.00,CLR,,0.00,WeatherDisplay:10.37,2013-02-07 15:05:00,
2013-02-07 06:10:00,26.5,23.2,29.51,NNW,348,0.0,0.0,87,0.00,CLR,,0.00,WeatherDisplay:10.37,2013-02-07 15:10:00,
2013-02-07 06:15:00,26.5,23.2,29.51,NNW,348,0.0,0.0,87,0.00,CLR,,0.00,WeatherDisplay:10.37,2013-02-07 15:15:00,
2013-02-07 06:20:00,26.5,23.4,29.51,NNW,348,0.0,0.0,88,0.00,CLR,,0.00,WeatherDisplay:10.37,2013-02-07 15:20:00,
2013-02-07 06:25:00,26.5,23.4,29.51,NNW,348,0.0,0.0,88,0.00,CLR,,0.00,WeatherDisplay:10.37,2013-02-07 15:25:00,
2013-02-07 06:30:00,26.4,23.3,29.51,NNW,348,0.0,0.0,88,0.00,CLR,,0.00,WeatherDisplay:10.37,2013-02-07 15:30:00,
2013-02-07 06:35:00,26.3,23.5,29.51,NNW,348,0.0,0.0,89,0.00,CLR,,0.00,WeatherDisplay:10.37,2013-02-07 15:35:00,
2013-02-07 06:40:00,26.3,23.5,29.51,NNW,348,0.0,0.0,89,0.00,CLR,,0.00,WeatherDisplay:10.37,2013-02-07 15:40:00,
2013-02-07 06:45:00,26.3,23.8,29.51,NNW,348,0.0,0.0,90,0.00,CLR,,0.00,WeatherDisplay:10.37,2013-02-07 15:45:00,
2013-02-07 06:50:00,26.3,23.8,29.51,NNW,348,0.0,0.0,90,0.00,CLR,,0.00,WeatherDisplay:10.37,2013-02-07 15:50:00,
2013-02-07 06:55:00,26.3,24.0,29.51,NNW,348,0.0,0.0,91,0.00,CLR,,0.00,WeatherDisplay:10.37,2013-02-07 15:55:00,
2013-02-07 07:00:00,26.3,24.0,29.51,NNW,348,0.0,0.0,91,0.00,CLR,,0.00,WeatherDisplay:10.37,2013-02-07 16:00:00,
2013-02-07 07:05:00,26.3,24.0,29.50,NNW,348,0.0,0.0,91,0.00,CLR,,0.00,WeatherDisplay:10.37,2013-02-07 16:05:00,
2013-02-07 07:10:00,26.3,24.0,29.50,NNW,348,0.0,0.0,91,0.00,CLR,,0.00,WeatherDisplay:10.37,2013-02-07 16:10:00,
2013-02-07 07:15:00,26.2,23.9,29.50,NNW,348,0.0,0.0,91,0.00,CLR,,0.00,WeatherDisplay:10.37,2013-02-07 16:15:00,
2013-02-07 07:20:00,26.2,24.2,29.50,NNW,348,0.0,0.0,92,0.00,CLR,,0.00,WeatherDisplay:10.37,2013-02-07 16:20:00,
2013-02-07 07:25:00,26.2,24.2,29.50,NNW,348,0.0,0.0,92,0.00,CLR,,0.00,WeatherDisplay:10.37,2013-02-07 16:25:00,
2013-02-07 07:30:00,26.3,24.3,29.50,NNW,348,0.0,0.0,92,0.00,CLR,,0.00,WeatherDisplay:10.37,2013-02-07 16:30:00,
2013-02-07 07:35:00,26.5,24.8,29.50,NNW,348,0.0,0.0,93,0.00,CLR,,0.00,WeatherDisplay:10.37,2013-02-07 16:35:00,
2013-02-07 07:40:00,26.7,24.9,29.49,NNW,348,0.0,0.0,93,0.00,CLR,,0.00,WeatherDisplay:10.37,2013-02-07 16:40:00,
2013-02-07 07:45:00,26.8,25.0,29.49,NNW,348,0.0,0.0,93,0.00,CLR,,0.00,WeatherDisplay:10.37,2013-02-07 16:45:00,
2013-02-07 07:50:00,27.0,25.2,29.49,NNW,348,0.0,0.0,93,0.00,CLR,,0.00,WeatherDisplay:10.37,2013-02-07 16:50:00,
2013-02-07 07:55:00,27.1,25.3,29.49,NNW,348,0.0,0.0,93,0.00,CLR,,0.00,WeatherDisplay:10.37,2013-02-07 16:55:00,
2013-02-07 08:00:00,27.1,25.3,29.48,NNW,348,0.0,0.0,93,0.00,CLR,,0.00,WeatherDisplay:10.37,2013-02-07 17:00:00,
2013-02-07 08:05:00,27.2,25.4,29.48,NNW,348,0.0,0.0,93,0.00,CLR,,0.00,WeatherDisplay:10.37,2013-02-07 17:05:00,
2013-02-07 08:10:00,27.3,25.5,29.48,NNW,348,0.0,0.0,93,0.00,CLR,,0.00,WeatherDisplay:10.37,2013-02-07 17:10:00,
2013-02-07 08:15:00,27.4,25.6,29.48,NNW,348,0.0,0.0,93,0.00,CLR,,0.00,WeatherDisplay:10.37,2013-02-07 17:15:00,
2013-02-07 08:20:00,27.4,25.6,29.48,NNW,348,0.0,0.0,93,0.00,CLR,,0.00,WeatherDisplay:10.37,2013-02-07 17:20:00,
2013-02-07 08:25:00,27.5,25.7,29.48,NNW,348,0.0,0.0,93,0.00,CLR,,0.00,WeatherDisplay:10.37,2013-02-07 17:25:00,
2013-02-07 08:30:00,27.5,25.7,29.48,NNW,348,0.0,0.0,93,0.00,CLR,,0.00,WeatherDisplay:10.37,2013-02-07 17:30:00,
2013-02-07 08:35:00,27.6,25.8,29.48,NNW,348,0.0,0.0,93,0.00,CLR,,0.00,WeatherDisplay:10.37,2013-02-07 17:35:00,
2013-02-07 08:40:00,27.7,26.2,29.48,NNW,348,0.0,0.0,94,0.00,CLR,,0.00,WeatherDisplay:10.37,2013-02-07 17:40:00,
2013-02-07 08:45:00,27.8,26.3,29.48,NNW,348,0.0,0.0,94,0.00,CLR,,0.00,WeatherDisplay:10.37,2013-02-07 17:45:00,
2013-02-07 08:50:00,27.8,26.3,29.47,NNW,348,0.0,0.0,94,0.00,CLR,,0.00,WeatherDisplay:10.37,2013-02-07 17:50:00,
2013-02-07 08:55:00,27.8,26.3,29.47,NNW,348,0.0,0.0,94,0.00,CLR,,0.00,WeatherDisplay:10.37,2013-02-07 17:55:00,
2013-02-07 09:00:00,27.9,26.4,29.47,NNW,348,0.0,0.0,94,0.00,CLR,,0.00,WeatherDisplay:10.37,2013-02-07 18:00:00,
2013-02-07 09:05:00,27.9,26.4,29.46,NNW,348,0.0,0.0,94,0.00,CLR,,0.00,WeatherDisplay:10.37,2013-02-07 18:05:00,
2013-02-07 09:10:00,27.9,26.4,29.46,NNW,348,0.0,0.0,94,0.00,CLR,,0.00,WeatherDisplay:10.37,2013-02-07 18:10:00,
2013-02-07 09:15:00,28.0,26.5,29.46,NNW,348,0.0,0.0,94,0.00,CLR,,0.00,WeatherDisplay:10.37,2013-02-07 18:15:00,
2013-02-07 09:20:00,28.1,26.6,29.46,NNW,348,0.0,0.0,94,0.00,CLR,,0.00,WeatherDisplay:10.37,2013-02-07 18:20:00,
2013-02-07 09:25:00,28.1,26.6,29.46,NNW,348,0.0,0.0,94,0.00,CLR,,0.00,WeatherDisplay:10.37,2013-02-07 18:25:00,
2013-02-07 09:30:00,28.3,26.8,29.45,NNW,348,0.0,0.0,94,0.00,CLR,,0.00,WeatherDisplay:10.37,2013-02-07 18:30:00,
2013-02-07 09:35:00,28.3,26.8,29.45,NNW,348,0.0,0.0,94,0.00,CLR,,0.00,WeatherDisplay:10.37,2013-02-07 18:35:00,
2013-02-07 09:40:00,28.3,26.8,29.45,NNW,348,0.0,0.0,94,0.00,CLR,,0.00,WeatherDisplay:10.37,2013-02-07 18:40:00,
2013-02-07 09:45:00,28.4,26.9,29.45,NNW,348,0.0,0.0,94,0.00,CLR,,0.00,WeatherDisplay:10.37,2013-02-07 18:45:00,
2013-02-07 09:50:00,28.6,27.1,29.44,NNW,348,0.0,0.0,94,0.00,CLR,,0.00,WeatherDisplay:10.37,2013-02-07 18:50:00,
2013-02-07 09:55:00,28.6,27.1,29.44,NNW,348,0.0,0.0,94,0.00,CLR,,0.00,WeatherDisplay:10.37,2013-02-07 18:55:00,
2013-02-07 10:00:00,28.7,27.2,29.44,NNW,348,0.0,0.0,94,0.00,CLR,,0.00,WeatherDisplay:10.37,2013-02-07 19:00:00,
2013-02-07 10:05:00,28.8,27.3,29.44,NNW,348,0.0,0.0,94,0.00,CLR,,0.00,WeatherDisplay:10.37,2013-02-07 19:05:00,
2013-02-07 10:10:00,28.9,27.4,29.44,NNW,348,0.0,0.0,94,0.00,CLR,,0.00,WeatherDisplay:10.37,2013-02-07 19:10:00,
2013-02-07 10:15:00,29.0,27.5,29.44,NNW,348,0.0,0.0,94,0.00,CLR,,0.00,WeatherDisplay:10.37,2013-02-07 19:15:00,
2013-02-07 10:20:00,29.1,27.6,29.43,NNW,348,0.0,0.0,94,0.00,CLR,,0.00,WeatherDisplay:10.37,2013-02-07 19:20:00,
2013-02-07 10:25:00,29.2,27.7,29.43,NNW,348,0.0,0.0,94,0.00,CLR,,0.00,WeatherDisplay:10.37,2013-02-07 19:25:00,
2013-02-07 10:30:00,29.3,27.8,29.43,NNW,348,0.0,0.0,94,0.00,CLR,,0.00,WeatherDisplay:10.37,2013-02-07 19:30:00,
2013-02-07 10:35:00,29.4,27.9,29.43,NNW,348,0.0,0.0,94,0.00,CLR,,0.00,WeatherDisplay:10.37,2013-02-07 19:35:00,
2013-02-07 10:40:00,29.5,28.0,29.42,NNW,348,0.0,0.0,94,0.00,CLR,,0.00,WeatherDisplay:10.37,2013-02-07 19:40:00,
2013-02-07 10:45:00,29.6,28.1,29.42,NNW,348,0.0,0.0,94,0.00,CLR,,0.00,WeatherDisplay:10.37,2013-02-07 19:45:00,
2013-02-07 10:50:00,29.6,28.1,29.42,NNW,348,0.0,0.0,94,0.00,CLR,,0.00,WeatherDisplay:10.37,2013-02-07 19:50:00,
2013-02-07 10:55:00,29.7,28.2,29.42,NNW,348,0.0,0.0,94,0.00,CLR,,0.00,WeatherDisplay:10.37,2013-02-07 19:55:00,
2013-02-07 11:00:00,29.8,28.3,29.42,NNW,348,0.0,0.0,94,0.00,CLR,,0.00,WeatherDisplay:10.37,2013-02-07 20:00:00,
2013-02-07 11:05:00,29.9,28.4,29.41,NNW,348,0.0,0.0,94,0.00,CLR,,0.00,WeatherDisplay:10.37,2013-02-07 20:05:00,
2013-02-07 11:10:00,30.0,28.5,29.41,NNW,348,0.0,0.0,94,0.00,CLR,,0.00,WeatherDisplay:10.37,2013-02-07 20:10:00,
2013-02-07 11:15:00,30.1,28.6,29.41,NNW,348,0.0,0.0,94,0.00,CLR,,0.00,WeatherDisplay:10.37,2013-02-07 20:15:00,
2013-02-07 11:20:00,30.3,28.8,29.40,NNW,348,0.0,0.0,94,0.00,CLR,,0.00,WeatherDisplay:10.37,2013-02-07 20:20:00,
2013-02-07 11:25:00,30.7,29.2,29.40,NNW,348,0.0,0.0,94,0.00,CLR,,0.00,WeatherDisplay:10.37,2013-02-07 20:25:00,
2013-02-07 11:30:00,31.1,29.6,29.40,NNW,348,0.0,0.0,94,0.00,CLR,,0.00,WeatherDisplay:10.37,2013-02-07 20:30:00,
2013-02-07 11:35:00,31.5,30.0,29.40,NNW,348,0.0,0.0,94,0.00,CLR,,0.00,WeatherDisplay:10.37,2013-02-07 20:35:00,
2013-02-07 11:40:00,31.8,30.0,29.39,NNW,348,0.0,0.0,93,0.00,CLR,,0.00,WeatherDisplay:10.37,2013-02-07 20:40:00,
2013-02-07 11:45:00,32.1,30.0,29.39,NNW,348,0.0,0.0,92,0.00,CLR,,0.00,WeatherDisplay:10.37,2013-02-07 20:45:00,
2013-02-07 11:50:00,32.4,30.1,29.38,NNW,348,0.0,0.0,91,0.00,CLR,,0.00,WeatherDisplay:10.37,2013-02-07 20:50:00,
2013-02-07 11:55:00,32.6,30.0,29.38,NNW,348,0.0,0.0,90,0.00,CLR,,0.00,WeatherDisplay:10.37,2013-02-07 20:55:00,
2013-02-07 12:00:00,32.9,30.3,29.38,NNW,348,0.0,0.0,90,0.00,CLR,,0.00,WeatherDisplay:10.37,2013-02-07 21:00:00,
2013-02-07 12:05:00,33.0,30.1,29.38,NNW,348,0.0,0.0,89,0.00,CLR,,0.00,WeatherDisplay:10.37,2013-02-07 21:05:00,
2013-02-07 12:10:00,33.1,30.2,29.38,NNW,348,0.0,0.0,89,0.00,CLR,,0.00,WeatherDisplay:10.37,2013-02-07 21:10:00,
2013-02-07 12:15:00,33.1,30.2,29.38,NNW,348,0.0,0.0,89,0.00,CLR,,0.00,WeatherDisplay:10.37,2013-02-07 21:15:00,
2013-02-07 12:20:00,33.2,30.3,29.38,NNW,348,0.0,0.0,89,0.00,CLR,,0.00,WeatherDisplay:10.37,2013-02-07 21:20:00,
2013-02-07 12:25:00,33.2,30.3,29.38,NNW,348,0.0,0.0,89,0.00,CLR,,0.00,WeatherDisplay:10.37,2013-02-07 21:25:00,
2013-02-07 12:30:00,33.2,30.3,29.38,NNW,348,0.0,0.0,89,0.00,CLR,,0.00,WeatherDisplay:10.37,2013-02-07 21:30:00,
2013-02-07 12:35:00,33.2,30.3,29.38,NNW,348,0.0,0.0,89,0.00,CLR,,0.00,WeatherDisplay:10.37,2013-02-07 21:35:00,
2013-02-07 12:40:00,33.0,30.1,29.38,NNW,348,0.0,0.0,89,0.00,CLR,,0.00,WeatherDisplay:10.37,2013-02-07 21:40:00,
2013-02-07 12:45:00,32.7,30.1,29.37,NNW,348,0.0,0.0,90,0.00,CLR,,0.00,WeatherDisplay:10.37,2013-02-07 21:45:00,
2013-02-07 12:50:00,32.5,30.2,29.36,NNW,348,0.0,0.0,91,0.00,CLR,,0.00,WeatherDisplay:10.37,2013-02-07 21:50:00,
2013-02-07 12:55:00,32.4,30.1,29.35,NNW,348,0.0,0.0,91,0.00,CLR,,0.00,WeatherDisplay:10.37,2013-02-07 21:55:00,
2013-02-07 13:00:00,32.3,30.2,29.35,NNW,348,0.0,0.0,92,0.00,CLR,,0.00,WeatherDisplay:10.37,2013-02-07 22:00:00,
2013-02-07 13:05:00,32.1,30.0,29.35,NNW,348,0.0,0.0,92,0.00,CLR,,0.00,WeatherDisplay:10.37,2013-02-07 22:05:00,
2013-02-07 13:10:00,32.0,29.9,29.35,NNW,348,0.0,0.0,92,0.00,CLR,,0.00,WeatherDisplay:10.37,2013-02-07 22:10:00,
2013-02-07 13:15:00,31.9,29.8,29.34,NNW,348,0.0,0.0,92,0.00,CLR,,0.00,WeatherDisplay:10.37,2013-02-07 22:15:00,
2013-02-07 13:20:00,31.8,29.7,29.34,NNW,348,0.0,0.0,92,0.00,CLR,,0.00,WeatherDisplay:10.37,2013-02-07 22:20:00,
2013-02-07 13:25:00,31.8,30.0,29.34,NNW,348,0.0,0.0,93,0.00,CLR,,0.00,WeatherDisplay:10.37,2013-02-07 22:25:00,
2013-02-07 13:30:00,31.8,30.0,29.33,NNW,348,0.0,0.0,93,0.00,CLR,,0.00,WeatherDisplay:10.37,2013-02-07 22:30:00,
2013-02-07 13:35:00,31.8,30.0,29.33,NNW,348,0.0,0.0,93,0.00,CLR,,0.00,WeatherDisplay:10.37,2013-02-07 22:35:00,
2013-02-07 13:40:00,31.8,30.0,29.33,NNW,348,0.0,0.0,93,0.00,CLR,,0.00,WeatherDisplay:10.37,2013-02-07 22:40:00,
2013-02-07 13:45:00,31.7,29.9,29.32,NNW,348,0.0,0.0,93,0.00,CLR,,0.00,WeatherDisplay:10.37,2013-02-07 22:45:00,
2013-02-07 13:50:00,31.8,30.0,29.32,NNW,348,0.0,0.0,93,0.00,CLR,,0.00,WeatherDisplay:10.37,2013-02-07 22:50:00,
2013-02-07 13:55:00,31.8,30.3,29.32,NNW,348,0.0,0.0,94,0.00,CLR,,0.00,WeatherDisplay:10.37,2013-02-07 22:55:00,
2013-02-07 14:00:00,31.7,29.9,29.32,NNW,348,0.0,0.0,93,0.00,CLR,,0.00,WeatherDisplay:10.37,2013-02-07 23:00:00,
2013-02-07 14:05:00,31.7,30.2,29.31,NNW,348,0.0,0.0,94,0.00,CLR,,0.00,WeatherDisplay:10.37,2013-02-07 23:05:00,
2013-02-07 14:10:00,31.7,30.2,29.30,NNW,348,0.0,0.0,94,0.00,CLR,,0.00,WeatherDisplay:10.37,2013-02-07 23:10:00,
2013-02-07 14:15:00,31.8,30.3,29.30,NNW,348,0.0,0.0,94,0.00,CLR,,0.00,WeatherDisplay:10.37,2013-02-07 23:15:00,
2013-02-07 14:20:00,31.8,30.3,29.30,NNW,348,0.0,0.0,94,0.00,CLR,,0.00,WeatherDisplay:10.37,2013-02-07 23:20:00,
2013-02-07 14:25:00,31.8,30.3,29.30,NNW,348,0.0,0.0,94,0.00,CLR,,0.00,WeatherDisplay:10.37,2013-02-07 23:25:00,
2013-02-07 14:30:00,31.8,30.3,29.30,NNW,348,0.0,0.0,94,0.00,CLR,,0.00,WeatherDisplay:10.37,2013-02-07 23:30:00,
2013-02-07 14:35:00,31.7,30.2,29.30,NNW,348,0.0,0.0,94,0.00,CLR,,0.00,WeatherDisplay:10.37,2013-02-07 23:35:00,
2013-02-07 14:40:00,31.7,30.2,29.30,NNW,348,0.0,0.0,94,0.00,CLR,,0.00,WeatherDisplay:10.37,2013-02-07 23:40:00,
2013-02-07 14:45:00,31.7,30.2,29.30,NNW,348,0.0,0.0,94,0.00,CLR,,0.00,WeatherDisplay:10.37,2013-02-07 23:45:00,
2013-02-07 14:50:00,31.7,30.2,29.29,NNW,348,0.0,0.0,94,0.00,CLR,,0.00,WeatherDisplay:10.37,2013-02-07 23:50:00,
2013-02-07 14:55:00,31.9,30.4,29.29,NNW,348,0.0,0.0,94,0.00,CLR,,0.00,WeatherDisplay:10.37,2013-02-07 23:55:00,
2013-02-07 15:00:00,32.0,30.5,29.29,NNW,348,0.0,0.0,94,0.00,CLR,,0.00,WeatherDisplay:10.37,2013-02-08 00:00:00,
2013-02-07 15:05:00,31.9,30.4,29.30,NNW,348,0.0,0.0,94,0.00,CLR,,0.00,WeatherDisplay:10.37,2013-02-08 00:05:00,
2013-02-07 15:10:00,31.9,30.4,29.30,NNW,348,0.0,0.0,94,0.00,CLR,,0.00,WeatherDisplay:10.37,2013-02-08 00:10:00,
2013-02-07 15:15:00,31.9,30.4,29.30,NNW,348,0.0,0.0,94,0.00,CLR,,0.00,WeatherDisplay:10.37,2013-02-08 00:15:00,
2013-02-07 15:20:00,32.0,30.5,29.30,NNW,348,0.0,0.0,94,0.00,CLR,,0.00,WeatherDisplay:10.37,2013-02-08 00:20:00,
2013-02-07 15:25:00,32.1,30.6,29.30,NNW,348,0.0,0.0,94,0.00,CLR,,0.00,WeatherDisplay:10.37,2013-02-08 00:25:00,
2013-02-07 15:30:00,32.2,30.7,29.30,NNW,348,0.0,0.0,94,0.00,CLR,,0.00,WeatherDisplay:10.37,2013-02-08 00:30:00,
2013-02-07 15:35:00,32.3,30.8,29.30,NNW,348,0.0,0.0,94,0.00,CLR,,0.00,WeatherDisplay:10.37,2013-02-08 00:35:00,
2013-02-07 15:40:00,32.4,30.9,29.30,NNW,348,0.0,0.0,94,0.00,CLR,,0.00,WeatherDisplay:10.37,2013-02-08 00:40:00,
2013-02-07 15:45:00,32.3,30.8,29.29,NNW,348,0.0,0.0,94,0.00,CLR,,0.00,WeatherDisplay:10.37,2013-02-08 00:45:00,
2013-02-07 15:50:00,32.1,30.6,29.30,NNW,348,0.0,0.0,94,0.00,CLR,,0.00,WeatherDisplay:10.37,2013-02-08 00:50:00,
2013-02-07 15:55:00,32.1,30.6,29.30,NNW,348,0.0,0.0,94,0.00,CLR,,0.00,WeatherDisplay:10.37,2013-02-08 00:55:00,
2013-02-07 16:00:00,32.1,30.6,29.30,NNW,348,0.0,0.0,94,0.00,CLR,,0.00,WeatherDisplay:10.37,2013-02-08 01:00:00,
2013-02-07 16:05:00,32.0,30.5,29.30,NNW,348,0.0,0.0,94,0.00,CLR,,0.00,WeatherDisplay:10.37,2013-02-08 01:05:00,
2013-02-07 16:10:00,32.0,30.5,29.30,NNW,348,0.0,0.0,94,0.00,CLR,,0.00,WeatherDisplay:10.37,2013-02-08 01:10:00,
2013-02-07 16:15:00,32.0,30.5,29.30,NNW,348,0.0,0.0,94,0.00,CLR,,0.00,WeatherDisplay:10.37,2013-02-08 01:15:00,
2013-02-07 16:20:00,32.1,30.6,29.30,NNW,348,0.0,0.0,94,0.00,CLR,,0.00,WeatherDisplay:10.37,2013-02-08 01:20:00,
2013-02-07 16:25:00,32.1,30.6,29.30,NNW,348,0.0,0.0,94,0.00,CLR,,0.00,WeatherDisplay:10.37,2013-02-08 01:25:00,
2013-02-07 16:30:00,32.1,30.6,29.30,NNW,348,0.0,0.0,94,0.00,CLR,,0.00,WeatherDisplay:10.37,2013-02-08 01:30:00,
2013-02-07 16:35:00,32.1,30.6,29.30,NNW,348,0.0,0.0,94,0.00,CLR,,0.00,WeatherDisplay:10.37,2013-02-08 01:35:00,
2013-02-07 16:40:00,32.1,30.6,29.30,NNW,348,0.0,0.0,94,0.00,CLR,,0.00,WeatherDisplay:10.37,2013-02-08 01:40:00,
2013-02-07 16:45:00,32.1,30.6,29.30,NNW,348,0.0,0.0,94,0.00,CLR,,0.00,WeatherDisplay:10.37,2013-02-08 01:45:00,
2013-02-07 16:50:00,32.2,30.7,29.30,NNW,348,0.0,0.0,94,0.00,CLR,,0.00,WeatherDisplay:10.37,2013-02-08 01:50:00,
2013-02-07 16:55:00,32.2,30.7,29.29,NNW,348,0.0,0.0,94,0.00,CLR,,0.00,WeatherDisplay:10.37,2013-02-08 01:55:00,
2013-02-07 17:00:00,32.3,30.8,29.29,NNW,348,0.0,0.0,94,0.00,CLR,,0.00,WeatherDisplay:10.37,2013-02-08 02:00:00,
2013-02-07 17:05:00,32.3,30.8,29.29,NNW,348,0.0,0.0,94,0.00,CLR,,0.00,WeatherDisplay:10.37,2013-02-08 02:05:00,
2013-02-07 17:10:00,32.2,30.7,29.29,NNW,348,0.0,0.0,94,0.00,CLR,,0.00,WeatherDisplay:10.37,2013-02-08 02:10:00,
2013-02-07 17:15:00,32.1,30.6,29.28,NNW,348,0.0,0.0,94,0.00,CLR,,0.00,WeatherDisplay:10.37,2013-02-08 02:15:00,
2013-02-07 17:20:00,31.9,30.4,29.28,NNW,348,0.0,0.0,94,0.00,CLR,,0.00,WeatherDisplay:10.37,2013-02-08 02:20:00,
2013-02-07 17:25:00,31.9,30.4,29.28,NNW,348,0.0,0.0,94,0.00,CLR,,0.00,WeatherDisplay:10.37,2013-02-08 02:25:00,
2013-02-07 17:30:00,32.0,30.5,29.28,NNW,348,0.0,0.0,94,0.00,CLR,,0.00,WeatherDisplay:10.37,2013-02-08 02:30:00,
2013-02-07 17:35:00,32.5,30.4,29.27,North,349,0.0,0.0,92,0.00,CLR,,0.00,WeatherDisplay:10.37,2013-02-08 02:35:00,
2013-02-07 17:40:00,33.3,30.4,29.27,North,349,0.0,0.0,89,0.00,CLR,,0.00,WeatherDisplay:10.37,2013-02-08 02:40:00,
2013-02-07 17:45:00,33.4,30.2,29.27,NNW,348,0.0,0.0,88,0.00,CLR,,0.00,WeatherDisplay:10.37,2013-02-08 02:45:00,
2013-02-07 17:50:00,33.4,29.9,29.26,North,349,0.0,0.0,87,0.00,CLR,,0.00,WeatherDisplay:10.37,2013-02-08 02:50:00,
2013-02-07 17:55:00,33.6,29.9,29.26,North,349,0.0,0.0,86,0.00,CLR,,0.00,WeatherDisplay:10.37,2013-02-08 02:55:00,
2013-02-07 18:00:00,33.6,30.1,29.26,NNW,348,0.0,0.0,87,0.00,CLR,,0.00,WeatherDisplay:10.37,2013-02-08 03:00:00,
2013-02-07 18:05:00,33.8,29.5,29.26,NNW,348,0.0,0.0,84,0.00,CLR,,0.00,WeatherDisplay:10.37,2013-02-08 03:05:00,
2013-02-07 18:10:00,34.4,29.5,29.27,North,349,0.0,0.0,82,0.00,CLR,,0.00,WeatherDisplay:10.37,2013-02-08 03:10:00,
2013-02-07 18:15:00,34.8,29.3,29.27,North,349,0.0,0.0,80,0.00,CLR,,0.00,WeatherDisplay:10.37,2013-02-08 03:15:00,
2013-02-07 18:20:00,34.5,29.9,29.26,North,349,0.0,0.0,83,0.00,CLR,,0.00,WeatherDisplay:10.37,2013-02-08 03:20:00,
2013-02-07 18:25:00,34.7,29.2,29.26,NNW,348,0.0,0.0,80,0.00,CLR,,0.00,WeatherDisplay:10.37,2013-02-08 03:25:00,
2013-02-07 18:30:00,34.7,29.8,29.26,North,349,0.0,0.0,82,0.00,CLR,,0.00,WeatherDisplay:10.37,2013-02-08 03:30:00,
2013-02-07 18:35:00,34.4,30.1,29.27,North,349,0.0,0.0,84,0.00,CLR,,0.00,WeatherDisplay:10.37,2013-02-08 03:35:00,
2013-02-07 18:40:00,34.1,29.8,29.27,NNW,348,0.0,0.0,84,0.00,CLR,,0.00,WeatherDisplay:10.37,2013-02-08 03:40:00,
2013-02-07 18:45:00,33.7,29.7,29.27,North,349,0.0,0.0,85,0.00,CLR,,0.00,WeatherDisplay:10.37,2013-02-08 03:45:00,
2013-02-07 18:50:00,33.5,29.8,29.27,North,349,0.0,0.0,86,0.00,CLR,,0.00,WeatherDisplay:10.37,2013-02-08 03:50:00,
2013-02-07 18:55:00,33.3,29.8,29.27,North,349,0.0,0.0,87,0.00,CLR,,0.00,WeatherDisplay:10.37,2013-02-08 03:55:00,
2013-02-07 19:00:00,33.1,29.7,29.27,North,349,0.0,0.0,87,0.00,CLR,,0.00,WeatherDisplay:10.37,2013-02-08 04:00:00,
2013-02-07 19:05:00,33.1,29.9,29.28,North,349,0.0,0.0,88,0.00,CLR,,0.00,WeatherDisplay:10.37,2013-02-08 04:05:00,
2013-02-07 19:10:00,32.9,30.0,29.28,North,349,0.0,0.0,89,0.00,CLR,,0.00,WeatherDisplay:10.37,2013-02-08 04:10:00,
2013-02-07 19:15:00,32.8,29.9,29.28,North,349,0.0,0.0,89,0.00,CLR,,0.00,WeatherDisplay:10.37,2013-02-08 04:15:00,
2013-02-07 19:20:00,32.6,30.0,29.28,North,349,0.0,0.0,90,0.00,CLR,,0.00,WeatherDisplay:10.37,2013-02-08 04:20:00,
2013-02-07 19:25:00,32.4,30.1,29.29,North,349,0.0,0.0,91,0.00,CLR,,0.00,WeatherDisplay:10.37,2013-02-08 04:25:00,
2013-02-07 19:30:00,32.4,30.1,29.29,North,349,0.0,0.0,91,0.00,CLR,,0.00,WeatherDisplay:10.37,2013-02-08 04:30:00,
2013-02-07 19:35:00,32.4,30.1,29.29,North,349,0.0,0.0,91,0.00,CLR,,0.00,WeatherDisplay:10.37,2013-02-08 04:35:00,
2013-02-07 19:40:00,32.4,30.1,29.29,NNW,348,0.0,0.0,91,0.00,CLR,,0.00,WeatherDisplay:10.37,2013-02-08 04:40:00,
2013-02-07 19:45:00,32.3,30.0,29.30,North,349,0.0,0.0,91,0.00,CLR,,0.00,WeatherDisplay:10.37,2013-02-08 04:45:00,
2013-02-07 19:50:00,32.2,29.9,29.29,NNW,348,0.0,0.0,91,0.00,CLR,,0.00,WeatherDisplay:10.37,2013-02-08 04:50:00,
2013-02-07 19:55:00,32.1,29.8,29.29,North,349,0.0,0.0,91,0.00,CLR,,0.00,WeatherDisplay:10.37,2013-02-08 04:55:00,
2013-02-07 20:00:00,32.0,29.9,29.29,NNW,348,0.0,0.0,92,0.00,CLR,,0.00,WeatherDisplay:10.37,2013-02-08 05:00:00,
2013-02-07 20:05:00,31.9,29.8,29.29,NNW,348,0.0,0.0,92,0.00,CLR,,0.00,WeatherDisplay:10.37,2013-02-08 05:05:00,
2013-02-07 20:10:00,31.9,29.8,29.29,NNW,348,0.0,0.0,92,0.00,CLR,,0.00,WeatherDisplay:10.37,2013-02-08 05:10:00,
2013-02-07 20:15:00,31.9,29.8,29.29,North,349,0.0,0.0,92,0.00,CLR,,0.00,WeatherDisplay:10.37,2013-02-08 05:15:00,
2013-02-07 20:20:00,32.5,29.3,29.29,North,349,0.0,0.0,88,0.00,CLR,,0.00,WeatherDisplay:10.37,2013-02-08 05:20:00,
2013-02-07 20:25:00,33.0,29.8,29.29,North,349,0.0,0.0,88,0.00,CLR,,0.00,WeatherDisplay:10.37,2013-02-08 05:25:00,
2013-02-07 20:30:00,33.0,29.8,29.29,North,349,0.0,0.0,88,0.00,CLR,,0.00,WeatherDisplay:10.37,2013-02-08 05:30:00,
2013-02-07 20:35:00,32.9,30.0,29.29,North,349,0.0,0.0,89,0.00,CLR,,0.00,WeatherDisplay:10.37,2013-02-08 05:35:00,
2013-02-07 20:40:00,32.8,29.9,29.29,NNW,348,0.0,0.0,89,0.00,CLR,,0.00,WeatherDisplay:10.37,2013-02-08 05:40:00,
2013-02-07 20:45:00,32.8,29.9,29.30,North,349,0.0,0.0,89,0.00,CLR,,0.00,WeatherDisplay:10.37,2013-02-08 05:45:00,
2013-02-07 20:50:00,32.8,29.9,29.30,NNW,348,0.0,0.0,89,0.00,CLR,,0.00,WeatherDisplay:10.37,2013-02-08 05:50:00,
2013-02-07 20:55:00,33.4,29.4,29.30,North,349,0.0,0.0,85,0.00,CLR,,0.00,WeatherDisplay:10.37,2013-02-08 05:55:00,
2013-02-07 21:00:00,33.8,29.8,29.30,NNW,348,0.0,0.0,85,0.00,CLR,,0.00,WeatherDisplay:10.37,2013-02-08 06:00:00,
2013-02-07 21:05:00,33.9,29.6,29.31,NNW,348,0.0,0.0,84,0.00,CLR,,0.00,WeatherDisplay:10.37,2013-02-08 06:05:00,
2013-02-07 21:10:00,34.0,30.0,29.31,North,349,0.0,0.0,85,0.00,CLR,,0.00,WeatherDisplay:10.37,2013-02-08 06:10:00,
2013-02-07 21:15:00,33.8,30.3,29.31,North,349,0.0,0.0,87,0.00,CLR,,0.00,WeatherDisplay:10.37,2013-02-08 06:15:00,
2013-02-07 21:20:00,33.5,30.0,29.32,North,349,0.0,0.0,87,0.00,CLR,,0.00,WeatherDisplay:10.37,2013-02-08 06:20:00,
2013-02-07 21:25:00,33.2,30.0,29.32,NNW,348,0.0,0.0,88,0.00,CLR,,0.00,WeatherDisplay:10.37,2013-02-08 06:25:00,
2013-02-07 21:30:00,32.9,30.0,29.31,North,349,0.0,0.0,89,0.00,CLR,,0.00,WeatherDisplay:10.37,2013-02-08 06:30:00,
2013-02-07 21:35:00,32.7,29.8,29.32,North,349,0.0,0.0,89,0.00,CLR,,0.00,WeatherDisplay:10.37,2013-02-08 06:35:00,
2013-02-07 21:40:00,32.4,30.1,29.32,NNW,348,0.0,0.0,91,0.00,CLR,,0.00,WeatherDisplay:10.37,2013-02-08 06:40:00,
2013-02-07 21:45:00,32.2,29.9,29.33,North,349,0.0,0.0,91,0.00,CLR,,0.00,WeatherDisplay:10.37,2013-02-08 06:45:00,
2013-02-07 21:50:00,32.1,29.8,29.33,NNW,348,0.0,0.0,91,0.00,CLR,,0.00,WeatherDisplay:10.37,2013-02-08 06:50:00,
2013-02-07 21:55:00,32.0,29.9,29.33,North,349,0.0,0.0,92,0.00,CLR,,0.00,WeatherDisplay:10.37,2013-02-08 06:55:00,
2013-02-07 22:00:00,31.9,29.8,29.33,NNW,348,0.0,0.0,92,0.00,CLR,,0.00,WeatherDisplay:10.37,2013-02-08 07:00:00,
2013-02-07 22:05:00,31.7,29.6,29.33,North,349,0.0,0.0,92,0.00,CLR,,0.00,WeatherDisplay:10.37,2013-02-08 07:05:00,
2013-02-07 22:10:00,31.6,29.5,29.33,NNW,348,0.0,0.0,92,0.00,CLR,,0.00,WeatherDisplay:10.37,2013-02-08 07:10:00,
2013-02-07 22:15:00,31.6,29.5,29.33,NNW,348,0.0,0.0,92,0.00,CLR,,0.00,WeatherDisplay:10.37,2013-02-08 07:15:00,
2013-02-07 22:20:00,31.7,29.6,29.33,NNW,348,0.0,0.0,92,0.00,CLR,,0.00,WeatherDisplay:10.37,2013-02-08 07:20:00,
2013-02-07 22:25:00,31.6,29.5,29.33,North,349,0.0,0.0,92,0.00,CLR,,0.00,WeatherDisplay:10.37,2013-02-08 07:25:00,
2013-02-07 22:30:00,31.3,29.2,29.33,North,349,0.0,0.0,92,0.00,CLR,,0.00,WeatherDisplay:10.37,2013-02-08 07:30:00,
2013-02-07 22:35:00,31.0,28.9,29.33,North,349,0.0,0.0,92,0.00,CLR,,0.00,WeatherDisplay:10.37,2013-02-08 07:35:00,
2013-02-07 22:40:00,30.9,28.9,29.33,North,349,0.0,0.0,92,0.00,CLR,,0.00,WeatherDisplay:10.37,2013-02-08 07:40:00,
2013-02-07 22:45:00,30.9,29.1,29.33,North,349,0.0,0.0,93,0.00,CLR,,0.00,WeatherDisplay:10.37,2013-02-08 07:45:00,
2013-02-07 22:50:00,30.8,29.0,29.33,North,349,0.0,0.0,93,0.00,CLR,,0.00,WeatherDisplay:10.37,2013-02-08 07:50:00,
2013-02-07 22:55:00,30.7,28.9,29.33,NNW,348,0.0,0.0,93,0.00,CLR,,0.00,WeatherDisplay:10.37,2013-02-08 07:55:00,
2013-02-07 23:00:00,30.9,29.1,29.33,NNW,348,0.0,0.0,93,0.00,CLR,,0.00,WeatherDisplay:10.37,2013-02-08 08:00:00,
2013-02-07 23:05:00,30.8,28.8,29.33,North,349,0.0,0.0,92,0.00,CLR,,0.00,WeatherDisplay:10.37,2013-02-08 08:05:00,
2013-02-07 23:10:00,30.7,28.7,29.34,North,349,0.0,0.0,92,0.00,CLR,,0.00,WeatherDisplay:10.37,2013-02-08 08:10:00,
2013-02-07 23:15:00,30.6,28.8,29.34,NNW,348,0.0,0.0,93,0.00,CLR,,0.00,WeatherDisplay:10.37,2013-02-08 08:15:00,
2013-02-07 23:20:00,30.7,28.9,29.34,North,349,0.0,0.0,93,0.00,CLR,,0.00,WeatherDisplay:10.37,2013-02-08 08:20:00,
2013-02-07 23:25:00,30.6,28.8,29.34,North,349,0.0,0.0,93,0.00,CLR,,0.00,WeatherDisplay:10.37,2013-02-08 08:25:00,
2013-02-07 23:30:00,30.5,28.7,29.34,NNW,348,0.0,0.0,93,0.00,CLR,,0.00,WeatherDisplay:10.37,2013-02-08 08:30:00,
2013-02-07 23:35:00,30.4,28.6,29.35,North,349,0.0,0.0,93,0.00,CLR,,0.00,WeatherDisplay:10.37,2013-02-08 08:35:00,
2013-02-07 23:40:00,30.3,28.5,29.35,North,349,0.0,0.0,93,0.00,CLR,,0.00,WeatherDisplay:10.37,2013-02-08 08:40:00,
2013-02-07 23:45:00,30.3,28.5,29.35,North,349,0.0,0.0,93,0.00,CLR,,0.00,WeatherDisplay:10.37,2013-02-08 08:45:00,
2013-02-07 23:50:00,30.3,28.5,29.36,North,349,0.0,0.0,93,0.00,CLR,,0.00,WeatherDisplay:10.37,2013-02-08 08:50:00,
2013-02-07 23:55:00,30.3,28.5,29.36,North,349,0.0,0.0,93,0.00,CLR,,0.00,WeatherDisplay:10.37,2013-02-08 08:55:00,